Regional Weather Roundup
Issued by NWS

Home | Current Version | Previous Version | Graphics & Text | Print | Product List | Glossary On
Versions: 1 2 3 4 5 6 7 8 9 10 11 12 13 14 15 16 17 18 19 20 21 22 23 24 25 26 27 28 29 30 31 32 33 34 35 36 37 38 39 40 41 42 43 44 45 46 47 48 49 50
000
ASUS43 KMKX 271221
RWRWI

WISCONSIN REGIONAL WEATHER ROUNDUP
NATIONAL WEATHER SERVICE MILWAUKEE/SULLIVAN WI
700 AM CDT MON APR 27 2015

NOTE: "FAIR" INDICATES FEW OR NO CLOUDS BELOW 12,000 FEET WITH NO
SIGNIFICANT WEATHER AND/OR OBSTRUCTIONS TO VISIBILITY.

WIZ001-002-006>008-014>016-023>028-271300-
NORTHWEST WISCONSIN

CITY           SKY/WX    TMP DP  RH WIND       PRES   REMARKS
SUPERIOR ARPT  CLEAR     29  27  92 S3        30.23S
6HR MIN TEMP:  25; 6HR MAX TEMP:  30;

ASHLAND        CLEAR     30  28  92 CALM      30.22R
6HR MIN TEMP:  25; 6HR MAX TEMP:  30;

HAYWARD        CLEAR     29  26  89 CALM      30.21S
6HR MIN TEMP:  27; 6HR MAX TEMP:  33;

SIREN          CLEAR     30  26  84 CALM      30.22S
6HR MIN TEMP:  26; 6HR MAX TEMP:  33;

CUMBERLAND     CLEAR     32  28  86 CALM      30.21R
RICE LAKE      CLEAR     32  29  86 N3        30.22S
6HR MIN TEMP:  31; 6HR MAX TEMP:  35;

CHETEK         CLEAR     34  29  83 CALM      30.21S
6HR MIN TEMP:  31; 6HR MAX TEMP:  39;

LADYSMITH      CLEAR     35  27  74 CALM      30.20F
6HR MIN TEMP:  33; 6HR MAX TEMP:  38;

EAU CLAIRE     CLEAR     35  28  75 CALM      30.19S
6HR MIN TEMP:  30; 6HR MAX TEMP:  42;

MENOMONIE      CLEAR     35  28  75 CALM      30.20S
6HR MIN TEMP:  34; 6HR MAX TEMP:  44;

NEW RICHMOND   CLEAR     34  29  80 CALM      30.21S
6HR MIN TEMP:  31; 6HR MAX TEMP:  37;

OSCEOLA        CLEAR     30  29  94 CALM      30.24S
6HR MIN TEMP:  29; 6HR MAX TEMP:  37;

$$

WIZ003>005-009-010-017-018-271300-
NORTH CENTRAL WISCONSIN

CITY           SKY/WX    TMP DP  RH WIND       PRES   REMARKS
MANITOWISH WTR SUNNY     32  28  82 CALM      30.18S
6HR MIN TEMP:  28; 6HR MAX TEMP:  35;

ARBOR VITAE    SUNNY     32  29  86 CALM      30.17S
6HR MIN TEMP:  28; 6HR MAX TEMP:  37;

WOODRUFF       SUNNY     32  29  86 CALM      30.17S
6HR MIN TEMP:  28; 6HR MAX TEMP:  37;

RHINELANDER    SUNNY     37  27  67 VRB6      30.17R WCI  32
6HR MIN TEMP:  32; 6HR MAX TEMP:  37;

EAGLE RIVER    SUNNY     35  27  70 N8        30.15S WCI  29
6HR MIN TEMP:  26; 6HR MAX TEMP:  35;

LAND O LAKES   SUNNY     36  28  73 N7        30.17R WCI  31
6HR MIN TEMP:  26; 6HR MAX TEMP:  36;

PHILLIPS       CLEAR     30  26  87 CALM      30.18S
6HR MIN TEMP:  27; 6HR MAX TEMP:  34;

TOMAHAWK       SUNNY     33  27  78 CALM      30.18R
6HR MIN TEMP:  26; 6HR MAX TEMP:  33;

MEDFORD        CLEAR     34  28  76 N5        30.17S WCI  30
6HR MIN TEMP:  30; 6HR MAX TEMP:  38;

MERRILL        SUNNY     35  29  78 CALM      30.17S
6HR MIN TEMP:  29; 6HR MAX TEMP:  37;

$$

WIZ029-030-035-036-043>047-271300-
CENTRAL WISCONSIN

CITY           SKY/WX    TMP DP  RH WIND       PRES   REMARKS
WAUSAU         SUNNY     38  29  70 N7        30.16R WCI  33
6HR MIN TEMP:  36; 6HR MAX TEMP:  43;

MOSINEE        SUNNY     37  28  70 N9        30.17R WCI  31
MARSHFIELD     CLEAR     38  30  73 N9        30.16S WCI  31
6HR MIN TEMP:  33; 6HR MAX TEMP:  42;

STEVENS POINT  SUNNY     36  29  74 NW6       30.16S WCI  31
6HR MIN TEMP:  27; 6HR MAX TEMP:  36;

WAUPACA        SUNNY     39  31  73 NW5       30.14S
6HR MIN TEMP:  34; 6HR MAX TEMP:  39;

WAUTOMA        SUNNY     38  30  73 CALM      30.15R
6HR MIN TEMP:  29; 6HR MAX TEMP:  38;

WISC RAPIDS    SUNNY     39  30  70 NE5       30.17R
6HR MIN TEMP:  32; 6HR MAX TEMP:  42;

CAMP DOUGLAS   CLEAR     30  30 100 W5        30.15S WCI  25
$$

WIZ011>013-019>022-031-037>040-048>050-271300-
NORTHEAST WISCONSIN

CITY           SKY/WX    TMP DP  RH WIND       PRES   REMARKS
ANTIGO         SUNNY     34  29  82 NW3       30.15S
SHAWANO        SUNNY     38  30  72 CALM      30.14R
6HR MIN TEMP:  34; 6HR MAX TEMP:  40;

OCONTO         SUNNY     39  30  70 N6        30.12R WCI  35
6HR MIN TEMP:  36; 6HR MAX TEMP:  40;

STURGEON BAY   SUNNY     39  28  65 N12       30.13R WCI  32
6HR MIN TEMP:  37; 6HR MAX TEMP:  43;

GREEN BAY      SUNNY     41  31  67 NW7       30.12R
6HR MIN TEMP:  37; 6HR MAX TEMP:  42;

MANITOWOC      SUNNY     42  33  70 N8        30.11R
6HR MIN TEMP:  39; 6HR MAX TEMP:  42;

APPLETON       SUNNY     39  28  65 N9        30.12S WCI  33
CLINTONVILLE   SUNNY     37  30  75 NW5       30.13S WCI  34
OSHKOSH        SUNNY     41  30  65 N8        30.11S
6HR MIN TEMP:  36; 6HR MAX TEMP:  42;

$$

WIZ032>034-041-042-053>061-271300-
SOUTHWEST WISCONSIN

CITY           SKY/WX    TMP DP  RH WIND       PRES   REMARKS
LA CROSSE      CLEAR     40  32  73 N6        30.17R
6HR MIN TEMP:  36; 6HR MAX TEMP:  47;

SPARTA         CLEAR     31  28  88 CALM      30.17S
6HR MIN TEMP:  26; 6HR MAX TEMP:  45;

VIROQUA        CLEAR     37  29  74 CALM      30.14R
6HR MIN TEMP:  35; 6HR MAX TEMP:  43;

BOSCOBEL       CLEAR     33  30  88 CALM      30.17R
6HR MIN TEMP:  30; 6HR MAX TEMP:  44;

PRAIRIE DU CHI CLEAR     34  29  83 CALM      30.16R
6HR MIN TEMP:  33; 6HR MAX TEMP:  41;

PLATTEVILLE    CLEAR     36  31  82 CALM      30.14R
6HR MIN TEMP:  33; 6HR MAX TEMP:  44;

$$

WIZ056-057-062-063-064-067-068-271300-
SOUTH CENTRAL WISCONSIN

CITY           SKY/WX    TMP DP  RH WIND       PRES   REMARKS
REEDSBURG      CLEAR     33  31  92 CALM      30.14R
6HR MIN TEMP:  32; 6HR MAX TEMP:  43;

BARABOO/DELLS  SUNNY     36  30  80 NW3       30.14R
6HR MIN TEMP:  32; 6HR MAX TEMP:  40;

LONE ROCK      CLEAR     35  30  82 W6        30.15R WCI  30
6HR MIN TEMP:  30; 6HR MAX TEMP:  45;

MINERAL POINT  CLEAR     37  32  81 CALM      30.14R
MADISON        SUNNY     37  30  75 N5        30.12R WCI  33
6HR MIN TEMP:  31; 6HR MAX TEMP:  40;

MIDDLETON      SUNNY     37  31  81 CALM      30.13R
6HR MIN TEMP:  31; 6HR MAX TEMP:  43;

WATERTOWN      SUNNY     37  35  91 NW7       30.10R WCI  32
6HR MIN TEMP:  31; 6HR MAX TEMP:  37;

MONROE         SUNNY     39  32  75 CALM      30.12R
JANESVILLE     SUNNY     36  30  80 NW6       30.10R WCI  31
$$

WIZ051-052-058>065-066-070>072-271300-
SOUTHEAST WISCONSIN

CITY           SKY/WX    TMP DP  RH WIND       PRES   REMARKS
MILWAUKEE      SUNNY     42  30  62 N9        30.08S
6HR MIN TEMP:  39; 6HR MAX TEMP:  42;

WAUKESHA       SUNNY     37  28  70 N5        30.10R WCI  34
MILWAUKEE/TIMM SUNNY     39  30  70 N7        30.09S WCI  34
RACINE         SUNNY     43  31  62 N15G23    30.09R
6HR MIN TEMP:  37; 6HR MAX TEMP:  43;

BURLINGTON     SUNNY     37  30  74 N6        30.09R WCI  33
6HR MIN TEMP:  31; 6HR MAX TEMP:  37;

KENOSHA        FAIR      40  31  70 N7        30.07R
6HR MIN TEMP:  36; 6HR MAX TEMP:  40;

FOND DU LAC    SUNNY     40  31  70 NW9       30.11S WCI  34
6HR MIN TEMP:  35; 6HR MAX TEMP:  40;

SHEBOYGAN      SUNNY     40  31  70 N9        30.10R WCI  34
6HR MIN TEMP:  37; 6HR MAX TEMP:  42;

WEST BEND      SUNNY     37  30  75 N6        30.09S WCI  33
JUNEAU         SUNNY     37  31  79 N6        30.12R WCI  32
6HR MIN TEMP:  33; 6HR MAX TEMP:  39;

$$

LSZ147-162-271300-
LAKE SUPERIOR

STATION/POSITION TIME  TEMP    WIND        PRES    WAVE
                       AIR SEA DIR/SP/G            HT/PER
                 (UTC) (F)     (DEG/KT/KT) (MB)    (FT/S)
W MID LAKE BUOY  1150   37 34  360/  6/  6 1024.5R   0
DEVILS ISLAND    1200   36     250/  9/ 10 1024.6R
PORT WING        1140   30     150/  2/  4 1023.7R
SAXON HARBOR     1100   30      CALM  /  5 1022.7
$$

LMZ867-665-643>646-271300-
LAKE MICHIGAN

STATION/POSITION TIME  TEMP    WIND        PRES    WAVE
                       AIR SEA DIR/SP/G            HT/PER



USA.gov is the U.S. government's official web portal to all federal, state and local government web resources and services.